Weather History for Erzincan, Turkey

Change the Weather History Date:

Friday, October 14, 2011

  Actual Average Record
Temperature  
Mean Temperature 52 °F -  
Max Temperature 62 °F 60 °F - ()
Min Temperature 42 °F 37 °F - ()
Degree Days  
Heating Degree Days 13    
Growing Degree Days 2 (Base 50)    
Moisture  
Dew Point 46 °F    
Average Humidity 77    
Maximum Humidity 100    
Minimum Humidity 48    
Precipitation  
Precipitation 0.00 in 0.05 in - ()
Sea Level Pressure  
Sea Level Pressure 30.11 in    
Wind  
Wind Speed 1 mph ()    
Max Wind Speed 6 mph    
Max Gust Speed -    
Visibility 6.4 miles    
Events      
T = Trace of Precipitation, MM = Missing Value Source: Averaged Metar Reports

Daily Weather History Graph

Daily Weather History Graph

Search for Another Location

Airport:

Trip Planner

Search our weather history database for the weather conditions in past years. The results will help you decide how hot, cold, wet, or windy it might be!

Date:

Astronomy

Oct. 14, 2011 Rise Set
Actual Time 6:30 AM EEST 5:44 PM EEST
Civil Twilight 6:03 AM EEST 6:12 PM EEST
Nautical Twilight 5:32 AM EEST 6:43 PM EEST
Astronomical Twilight 5:00 AM EEST 7:14 PM EEST
Moon 6:44 PM EEST (10/14) 8:38 AM EEST (10/14)
Length of Visible Light 12h 08m
Length of Day
11h 14m
Waning Gibbous, 95% of the Moon is Illuminated
Oct 14
Waning Gibbous
Oct 20
Last Quarter
Oct 26
New
Nov 2
First Quarter
Nov 10
Full

Hourly Weather History & Observations

Time (EEST) Temp. Dew Point Humidity Pressure Visibility Wind Dir Wind Speed Gust Speed Precip Events Conditions
12:50 AM 46.4 °F 42.8 °F 87% 30.09 in 6.2 mi Variable 2.3 mph - N/A   Scattered Clouds
1:50 AM 48.2 °F 46.4 °F 93% 30.09 in 6.2 mi Calm Calm - N/A   Scattered Clouds
3:00 AM 47 °F 45 °F 88%  in 12 mi Calm Calm - -   Partly Cloudy
3:50 AM 46.4 °F 46.4 °F 100% 30.09 in 6.2 mi NNE 2.3 mph - N/A   Scattered Clouds
4:50 AM 44.6 °F 44.6 °F 100% 30.09 in 6.2 mi West 2.3 mph - N/A   Scattered Clouds
5:50 AM 44.6 °F 44.6 °F 100% 30.09 in 6.2 mi Calm Calm - N/A   Scattered Clouds
6:50 AM 46.4 °F 44.6 °F 93% 30.09 in 6.2 mi Calm Calm - N/A   Scattered Clouds
7:50 AM 48.2 °F 46.4 °F 93% 30.12 in 6.2 mi Calm Calm - N/A   Mostly Cloudy
8:50 AM 50.0 °F 46.4 °F 87% 30.12 in 6.2 mi Calm Calm - N/A   Mostly Cloudy
9:00 AM 50 °F 46 °F 83%  in 6 mi Calm Calm - -   Partly Cloudy
9:50 AM 51.8 °F 48.2 °F 88% 30.12 in 6.2 mi Calm Calm - N/A   Mostly Cloudy
10:50 AM 53.6 °F 46.4 °F 77% 30.12 in 6.2 mi Variable 1.2 mph - N/A   Mostly Cloudy
11:50 AM 59.0 °F 46.4 °F 63% 30.12 in 6.2 mi Variable 1.2 mph - N/A   Mostly Cloudy
12:50 PM 60.8 °F 46.4 °F 59% 30.09 in 6.2 mi Variable 2.3 mph - N/A   Mostly Cloudy
1:50 PM 60.8 °F 46.4 °F 59% 30.09 in 6.2 mi Variable 1.2 mph - N/A   Mostly Cloudy
2:50 PM 62.6 °F 48.2 °F 59% 30.09 in 6.2 mi Variable 1.2 mph - N/A   Mostly Cloudy
3:00 PM 62 °F 47 °F 48%  in 6 mi East 1.2 mph - -   Partly Cloudy
3:50 PM 60.8 °F 46.4 °F 59% 30.09 in 6.2 mi West 1.2 mph - N/A   Mostly Cloudy
4:50 PM 60.8 °F 48.2 °F 63% 30.09 in 6.2 mi Calm Calm - N/A   Mostly Cloudy
5:50 PM 59.0 °F 46.4 °F 63% 30.12 in 6.2 mi East 3.5 mph - N/A   Mostly Cloudy
6:50 PM 57.2 °F 44.6 °F 63% 30.12 in 6.2 mi South 4.6 mph - N/A   Mostly Cloudy
7:50 PM 57.2 °F 44.6 °F 63% 30.15 in 6.2 mi Variable 1.2 mph - N/A   Mostly Cloudy
8:50 PM 55.4 °F 46.4 °F 72% 30.15 in 6.2 mi NNW 2.3 mph - N/A   Mostly Cloudy
9:00 PM 56 °F 47 °F 63%  in 6 mi NNW 2.3 mph - -   Partly Cloudy
9:50 PM 53.6 °F 48.2 °F 82% 30.15 in 6.2 mi Variable 2.3 mph - N/A   Mostly Cloudy
10:50 PM 51.8 °F 48.2 °F 88% 30.18 in 6.2 mi SE 5.8 mph - N/A   Mostly Cloudy
11:50 PM 51.8 °F 48.2 °F 88% 30.18 in 6.2 mi Calm Calm - N/A   Mostly Cloudy